Weather History for KFOK - September, 2013

Change the Weather History Date:

Friday, September 6, 2013

  Actual Average Record
Temperature  
Mean Temperature 56 °F -  
Max Temperature 69 °F 74 °F 84 °F (1998)
Min Temperature 45 °F 56 °F 42 °F (2000)
Degree Days  
Heating Degree Days 10    
Growing Degree Days 6 (Base 50)    
Moisture  
Dew Point 44 °F    
Average Humidity 61    
Maximum Humidity 90    
Minimum Humidity 40    
Precipitation  
Precipitation 0.00 in - - ()
Sea Level Pressure  
Sea Level Pressure 30.20 in    
Wind  
Wind Speed 5 mph (NE)    
Max Wind Speed 13 mph    
Max Gust Speed -    
Visibility 10 miles    
Events      
Averages and records for this station are not official NWS values.
T = Trace of Precipitation, MM = Missing Value Source: NWS Daily Summary

Daily Weather History Graph

Daily Weather History Graph

Search for Another Location

Airport or City:

Trip Planner

Search our weather history database for the weather conditions in past years. The results will help you decide how hot, cold, wet, or windy it might be!

Date:

Astronomy

Sep. 06, 2013 Rise Set
Actual Time 6:22 AM EDT 7:14 PM EDT
Civil Twilight 5:54 AM EDT 7:42 PM EDT
Nautical Twilight 5:21 AM EDT 8:15 PM EDT
Astronomical Twilight 4:47 AM EDT 8:49 PM EDT
Moon 7:32 AM EDT (9/6) 7:35 PM EDT (9/6)
Length of Visible Light 13h 47m
Length of Day
12h 51m
New Moon, 1% of the Moon is Illuminated
Sep 6
New Moon
Sep 12
First Quarter
Sep 19
Full
Sep 26
Last Quarter
Oct 4
New

Hourly Weather History & Observations

Time (EDT) Temp. Dew Point Humidity Pressure Visibility Wind Dir Wind Speed Gust Speed Precip Events Conditions
12:53 AM 55.9 °F 44.1 °F 64% 30.16 in 10.0 mi NNE 5.8 mph - N/A   Clear
1:53 AM 52.0 °F 43.0 °F 71% 30.17 in 10.0 mi Calm Calm - N/A   Clear
2:53 AM 46.0 °F 42.1 °F 86% 30.17 in 10.0 mi Calm Calm - N/A   Clear
3:53 AM 57.0 °F 48.9 °F 74% 30.17 in 10.0 mi NNE 9.2 mph - N/A   Clear
4:53 AM 55.9 °F 46.9 °F 72% 30.19 in 10.0 mi NNE 9.2 mph - N/A   Clear
5:53 AM 55.9 °F 45.0 °F 67% 30.19 in 10.0 mi NE 10.4 mph - N/A   Clear
6:53 AM 57.0 °F 44.1 °F 62% 30.22 in 10.0 mi NNE 8.1 mph - N/A   Clear
7:53 AM 61.0 °F 45.0 °F 56% 30.23 in 10.0 mi NNE 11.5 mph - N/A   Clear
8:53 AM 63.0 °F 43.0 °F 48% 30.25 in 10.0 mi NNE 12.7 mph - N/A   Clear
9:53 AM 64.9 °F 42.1 °F 43% 30.26 in 10.0 mi NE 11.5 mph - N/A   Clear
10:53 AM 66.9 °F 42.1 °F 40% 30.25 in 10.0 mi NNE 11.5 mph - N/A   Clear
11:53 AM 66.9 °F 43.0 °F 42% 30.25 in 10.0 mi NE 8.1 mph - N/A   Clear
12:53 PM 66.9 °F 43.0 °F 42% 30.25 in 10.0 mi Calm Calm - N/A   Clear
1:53 PM 66.9 °F 43.0 °F 42% 30.24 in 10.0 mi ESE 5.8 mph - N/A   Partly Cloudy
2:53 PM 66.9 °F 44.1 °F 44% 30.22 in 10.0 mi Variable 5.8 mph - N/A   Partly Cloudy
3:53 PM 66.9 °F 45.0 °F 45% 30.20 in 10.0 mi Variable 3.5 mph - N/A   Clear
4:53 PM 66.9 °F 44.1 °F 44% 30.18 in 10.0 mi ESE 6.9 mph - N/A   Clear
5:53 PM 66.0 °F 44.1 °F 45% 30.18 in 10.0 mi SE 3.5 mph - N/A   Clear
6:53 PM 62.1 °F 46.9 °F 58% 30.18 in 10.0 mi Calm Calm - N/A   Clear
7:53 PM 53.1 °F 46.0 °F 77% 30.18 in 10.0 mi South 3.5 mph - N/A   Clear
8:53 PM 50.0 °F 45.0 °F 83% 30.18 in 10.0 mi Calm Calm - N/A   Clear
9:53 PM 48.0 °F 44.1 °F 86% 30.18 in 10.0 mi Calm Calm - N/A   Clear
10:53 PM 45.0 °F 42.1 °F 90% 30.17 in 10.0 mi Calm Calm - N/A   Clear
11:53 PM 45.0 °F 42.1 °F 90% 30.15 in 10.0 mi Calm Calm - N/A   Clear